{"data":{"norad_id":56743,"intl_designator":"2023-072A","name":"NEXTSAT-2","alt_names":[],"object_type":"PAYLOAD","status":"ACTIVE","operator":null,"country":"SKOR","launch_date":"2023-05-25","launch_site_code":"NSC","launch_vehicle":null,"mission":null,"orbit_class":"UNKNOWN","rcs_meters":null,"size_class":null,"mass_kg":null,"dimensions":null,"purposes":[],"wikipedia_slug":null,"has_3d_model":false,"image_url":null,"decayed_at":null,"tle_current":{"epoch":"2026-09-21T22:23:46.917024Z","epoch_age_seconds":72905,"freshness":"FRESH","line1":"1 56743U 23072A   26264.93318191  .00004233  00000+0  15280-3 0  9994","line2":"2 56743  97.5195 102.8783 0006539  48.8387 311.3415 15.29049258184379","mean_motion":15.29049258,"eccentricity":0.0006539,"inclination_deg":97.5195,"raan_deg":102.8783,"arg_perigee_deg":48.8387,"mean_anomaly_deg":311.3415,"bstar":0.0001528,"rev_number":18437,"period_min":94.176168129699,"perigee_km":474.16947720981,"apogee_km":483.1367873448,"semimajor_km":6856.7901322773,"source":"CELESTRAK","updated_at":"2026-09-22T09:00:25.904499Z"}}}